Location: Newark
(48.1281°N, 2.1556°W)
Time: 15:56:29
(UTC+00:00)

Envisat - Pass Details

Date: 22 November 2019
Orbit: 764 x 766 km, 98.1° (Epoch: 12 December)

Event Time Altitude Azimuth Distance (km) Brightness Sun altitude
Rises 18:44:35 0° 188° (S) 3,220 6.4 -23.1°
Reaches altitude 10° 18:47:02 10° 197° (SSW) 2,298 5.7 -23.5°
Maximum altitude 18:51:42 36° 264° (W) 1,193 4.5 -24.3°
Drops below altitude 10° 18:56:24 10° 331° (NNW) 2,313 5.8 -25.1°
Sets 18:58:54 0° 340° (NNW) 3,244 6.5 -25.5°
